Time,TemperatureF,DewpointF,PressureIn,WindDirection,WindDirectionDegrees,WindSpeedMPH,WindSpeedGustMPH,Humidity,HourlyPrecipIn,Conditions,Clouds,dailyrainin,SoftwareType,DateUTC
2014-03-02 00:02:00,31.3,-5.1,30.07,South,180,2.0,3.0,20,0.00,,,0.00,meteohub,2014-03-02 05:02:00,
2014-03-02 00:03:00,31.3,-5.1,30.07,South,180,0.0,3.0,20,0.00,,,0.00,meteohub,2014-03-02 05:03:00,
2014-03-02 00:06:00,31.5,-4.9,30.07,SSW,202,0.0,3.0,20,0.00,,,0.00,meteohub,2014-03-02 05:06:00,
2014-03-02 00:09:00,31.5,-4.9,30.07,South,180,2.0,3.0,20,0.00,,,0.00,meteohub,2014-03-02 05:09:00,
2014-03-02 00:14:00,31.5,-4.9,30.07,South,180,0.0,6.0,20,0.00,,,0.00,meteohub,2014-03-02 05:14:00,
2014-03-02 00:19:00,31.5,-4.9,30.07,South,180,6.0,6.0,20,0.00,,,0.00,meteohub,2014-03-02 05:19:00,
2014-03-02 00:25:00,31.6,-4.7,30.07,SSW,202,1.0,6.0,20,0.00,,,0.00,meteohub,2014-03-02 05:25:00,
2014-03-02 00:31:00,31.5,-4.9,30.07,SSW,202,0.0,6.0,20,0.00,,,0.00,meteohub,2014-03-02 05:31:00,
2014-03-02 00:37:00,31.6,-4.7,30.07,SW,225,0.0,5.0,20,0.00,,,0.00,meteohub,2014-03-02 05:37:00,
2014-03-02 00:42:00,31.6,-4.7,30.07,SSW,202,1.0,4.0,20,0.00,,,0.00,meteohub,2014-03-02 05:42:00,
2014-03-02 00:47:00,31.6,-4.7,30.04,SW,225,0.0,8.0,20,0.00,,,0.00,meteohub,2014-03-02 05:47:00,
2014-03-02 00:54:00,31.6,-4.7,30.04,SW,225,0.0,8.0,20,0.00,,,0.00,meteohub,2014-03-02 05:54:00,
2014-03-02 00:59:00,31.6,-4.7,30.04,South,180,0.0,8.0,20,0.00,,,0.00,meteohub,2014-03-02 05:59:00,
2014-03-02 01:05:00,31.8,-4.7,30.04,WNW,292,4.0,5.0,20,0.00,,,0.00,meteohub,2014-03-02 06:05:00,
2014-03-02 01:10:00,31.6,-4.7,30.04,SSW,202,0.0,5.0,20,0.00,,,0.00,meteohub,2014-03-02 06:10:00,
2014-03-02 01:16:00,31.6,-4.7,30.04,SSW,202,0.0,5.0,20,0.00,,,0.00,meteohub,2014-03-02 06:16:00,
2014-03-02 01:21:00,31.6,-4.7,30.07,SW,225,2.0,5.0,20,0.00,,,0.00,meteohub,2014-03-02 06:21:00,
2014-03-02 01:26:00,31.6,-4.7,30.07,South,180,0.0,3.0,20,0.00,,,0.00,meteohub,2014-03-02 06:26:00,
2014-03-02 01:32:00,31.5,-4.9,30.07,SSW,202,2.0,5.0,20,0.00,,,0.00,meteohub,2014-03-02 06:32:00,
2014-03-02 01:37:00,31.5,-4.9,30.07,SSW,202,0.0,5.0,20,0.00,,,0.00,meteohub,2014-03-02 06:37:00,
2014-03-02 01:43:00,31.5,-4.9,30.07,WSW,248,0.0,4.0,20,0.00,,,0.00,meteohub,2014-03-02 06:43:00,
2014-03-02 01:48:00,31.3,-5.1,30.01,South,180,0.0,3.0,20,0.00,,,0.00,meteohub,2014-03-02 06:48:00,
2014-03-02 01:55:00,31.3,-5.1,30.01,SSW,202,2.0,3.0,20,0.00,,,0.00,meteohub,2014-03-02 06:55:00,
2014-03-02 02:00:00,31.3,-5.1,30.01,West,270,0.0,4.0,20,0.00,,,0.00,meteohub,2014-03-02 07:00:00,
2014-03-02 02:05:00,31.1,-5.3,30.01,SW,225,1.0,4.0,20,0.00,,,0.00,meteohub,2014-03-02 07:05:00,
2014-03-02 02:11:00,31.1,-5.3,30.01,SW,225,1.0,3.0,20,0.00,,,0.00,meteohub,2014-03-02 07:11:00,
2014-03-02 02:16:00,31.1,-5.3,30.01,WSW,248,2.0,4.0,20,0.00,,,0.00,meteohub,2014-03-02 07:16:00,
2014-03-02 02:21:00,31.1,-5.3,30.01,SSW,202,0.0,5.0,20,0.00,,,0.00,meteohub,2014-03-02 07:21:00,
2014-03-02 02:26:00,31.1,-5.3,30.01,WNW,292,0.0,5.0,20,0.00,,,0.00,meteohub,2014-03-02 07:26:00,
2014-03-02 02:32:00,31.1,-5.3,30.01,West,270,0.0,5.0,20,0.00,,,0.00,meteohub,2014-03-02 07:32:00,
2014-03-02 02:37:00,31.1,-5.3,30.01,SW,225,0.0,3.0,20,0.00,,,0.00,meteohub,2014-03-02 07:37:00,
2014-03-02 02:42:00,31.1,-5.3,30.01,WNW,292,0.0,4.0,20,0.00,,,0.00,meteohub,2014-03-02 07:42:00,
2014-03-02 02:48:00,31.1,-5.3,30.01,South,180,2.0,4.0,20,0.00,,,0.00,meteohub,2014-03-02 07:48:00,
2014-03-02 02:53:00,31.1,-5.3,30.01,WNW,292,2.0,4.0,20,0.00,,,0.00,meteohub,2014-03-02 07:53:00,
2014-03-02 02:58:00,31.1,-5.3,30.01,SSW,202,0.0,4.0,20,0.00,,,0.00,meteohub,2014-03-02 07:58:00,
2014-03-02 03:04:00,31.1,-5.3,30.01,WSW,248,0.0,4.0,20,0.00,,,0.00,meteohub,2014-03-02 08:04:00,
2014-03-02 03:09:00,30.9,-5.4,30.01,WNW,292,0.0,4.0,20,0.00,,,0.00,meteohub,2014-03-02 08:09:00,
2014-03-02 03:14:00,31.1,-5.3,30.01,NW,315,2.0,3.0,20,0.00,,,0.00,meteohub,2014-03-02 08:14:00,
2014-03-02 03:19:00,31.1,-5.3,29.99,SSE,158,0.0,3.0,20,0.00,,,0.00,meteohub,2014-03-02 08:19:00,
2014-03-02 03:25:00,31.1,-5.3,29.99,West,270,0.0,3.0,20,0.00,,,0.00,meteohub,2014-03-02 08:25:00,
2014-03-02 03:30:00,31.1,-5.3,29.99,ENE,68,2.0,0.0,20,0.00,,,0.00,meteohub,2014-03-02 08:30:00,
2014-03-02 03:36:00,31.1,-5.3,30.01,SSW,202,0.0,2.0,20,0.00,,,0.00,meteohub,2014-03-02 08:36:00,
2014-03-02 03:41:00,31.1,-5.3,30.01,South,180,0.0,2.0,20,0.00,,,0.00,meteohub,2014-03-02 08:41:00,
2014-03-02 03:46:00,31.1,-5.3,30.01,SSW,202,1.0,2.0,20,0.00,,,0.00,meteohub,2014-03-02 08:46:00,
2014-03-02 03:52:00,31.1,-5.3,30.01,South,180,3.0,3.0,20,0.00,,,0.00,meteohub,2014-03-02 08:52:00,
2014-03-02 03:58:00,31.1,-5.3,-100.00,South,180,2.0,3.0,20,0.00,,,0.00,meteohub,2014-03-02 08:58:00,
2014-03-02 04:04:00,31.1,-5.3,30.01,NW,315,2.0,5.0,20,0.00,,,0.00,meteohub,2014-03-02 09:04:00,
2014-03-02 04:09:00,31.1,-5.3,30.01,SSW,202,0.0,5.0,20,0.00,,,0.00,meteohub,2014-03-02 09:09:00,
2014-03-02 04:14:00,31.1,-5.3,30.01,SW,225,0.0,4.0,20,0.00,,,0.00,meteohub,2014-03-02 09:14:00,
2014-03-02 04:19:00,31.1,-5.3,30.01,WSW,248,0.0,3.0,20,0.00,,,0.00,meteohub,2014-03-02 09:19:00,
2014-03-02 04:25:00,31.3,-5.1,30.01,WSW,248,4.0,4.0,20,0.00,,,0.00,meteohub,2014-03-02 09:25:00,
2014-03-02 04:30:00,31.3,-5.1,30.01,SW,225,0.0,4.0,20,0.00,,,0.00,meteohub,2014-03-02 09:30:00,
2014-03-02 04:37:00,31.3,-5.1,30.01,WSW,248,0.0,4.0,20,0.00,,,0.00,meteohub,2014-03-02 09:37:00,
2014-03-02 04:43:00,31.3,-5.1,30.01,South,180,0.0,4.0,20,0.00,,,0.00,meteohub,2014-03-02 09:43:00,
2014-03-02 04:49:00,31.3,-5.1,30.01,SW,225,0.0,0.0,20,0.00,,,0.00,meteohub,2014-03-02 09:49:00,
2014-03-02 04:54:00,31.3,-5.1,30.01,WSW,248,0.0,0.0,20,0.00,,,0.00,meteohub,2014-03-02 09:54:00,
2014-03-02 04:59:00,31.3,-5.1,30.01,SW,225,0.0,0.0,20,0.00,,,0.00,meteohub,2014-03-02 09:59:00,
2014-03-02 05:05:00,31.3,-5.1,29.99,SSW,202,0.0,1.0,20,0.00,,,0.00,meteohub,2014-03-02 10:05:00,
2014-03-02 05:10:00,31.3,-5.1,29.99,WSW,248,0.0,3.0,20,0.00,,,0.00,meteohub,2014-03-02 10:10:00,
2014-03-02 05:15:00,31.3,-5.1,29.99,NNW,338,2.0,3.0,20,0.00,,,0.00,meteohub,2014-03-02 10:15:00,
2014-03-02 05:20:00,31.3,-5.1,30.01,South,180,2.0,3.0,20,0.00,,,0.00,meteohub,2014-03-02 10:20:00,
2014-03-02 05:27:00,31.3,-5.1,30.01,SW,225,3.0,3.0,20,0.00,,,0.00,meteohub,2014-03-02 10:27:00,
2014-03-02 05:32:00,31.3,-5.1,30.01,SW,225,0.0,4.0,20,0.00,,,0.00,meteohub,2014-03-02 10:32:00,
2014-03-02 05:38:00,31.3,-5.1,30.01,SSW,202,0.0,4.0,20,0.00,,,0.00,meteohub,2014-03-02 10:38:00,
2014-03-02 05:44:00,31.5,-4.9,30.01,SSW,202,3.0,4.0,20,0.00,,,0.00,meteohub,2014-03-02 10:44:00,
2014-03-02 05:50:00,31.5,-4.9,30.01,SSW,202,0.0,4.0,20,0.00,,,0.00,meteohub,2014-03-02 10:50:00,
2014-03-02 05:55:00,31.5,-4.9,30.01,South,180,0.0,5.0,20,0.00,,,0.00,meteohub,2014-03-02 10:55:00,
2014-03-02 06:00:00,31.6,-4.7,30.01,SSW,202,2.0,4.0,20,0.00,,,0.00,meteohub,2014-03-02 11:00:00,
2014-03-02 06:05:00,31.8,-4.7,30.01,WSW,248,0.0,5.0,20,0.00,,,0.00,meteohub,2014-03-02 11:05:00,
2014-03-02 06:11:00,31.8,-4.7,30.01,SSW,202,0.0,5.0,20,0.00,,,0.00,meteohub,2014-03-02 11:11:00,
2014-03-02 06:16:00,31.8,-4.7,30.01,SSW,202,0.0,5.0,20,0.00,,,0.00,meteohub,2014-03-02 11:16:00,
2014-03-02 06:22:00,31.8,-4.7,30.01,SW,225,1.0,3.0,20,0.00,,,0.00,meteohub,2014-03-02 11:22:00,
2014-03-02 06:28:00,31.8,-4.7,30.01,SW,225,0.0,1.0,20,0.00,,,0.00,meteohub,2014-03-02 11:28:00,
2014-03-02 06:33:00,32.0,-4.4,29.99,SSW,202,1.0,1.0,20,0.00,,,0.00,meteohub,2014-03-02 11:33:00,
2014-03-02 06:39:00,32.2,-4.2,29.99,West,270,2.0,5.0,20,0.00,,,0.00,meteohub,2014-03-02 11:39:00,
2014-03-02 06:45:00,32.4,-4.2,29.99,SW,225,0.0,5.0,20,0.00,,,0.00,meteohub,2014-03-02 11:45:00,
2014-03-02 06:50:00,32.4,-4.2,29.99,SSW,202,0.0,3.0,20,0.00,,,0.00,meteohub,2014-03-02 11:50:00,
2014-03-02 06:56:00,32.5,-4.0,29.99,SSW,202,3.0,3.0,20,0.00,,,0.00,meteohub,2014-03-02 11:56:00,
2014-03-02 07:01:00,32.7,-3.8,29.99,SSW,202,2.0,4.0,20,0.00,,,0.00,meteohub,2014-03-02 12:01:00,
2014-03-02 07:06:00,32.7,-3.8,30.01,SSW,202,3.0,4.0,20,0.00,,,0.00,meteohub,2014-03-02 12:06:00,
2014-03-02 07:13:00,32.7,-3.8,30.01,SW,225,3.0,4.0,20,0.00,,,0.00,meteohub,2014-03-02 12:13:00,
2014-03-02 07:20:00,32.7,-3.8,30.01,SW,225,1.0,5.0,20,0.00,,,0.00,meteohub,2014-03-02 12:20:00,
2014-03-02 07:25:00,32.9,-3.6,30.01,WSW,248,0.0,5.0,20,0.00,,,0.00,meteohub,2014-03-02 12:25:00,
2014-03-02 07:31:00,33.1,-3.5,30.01,West,270,0.0,5.0,20,0.00,,,0.00,meteohub,2014-03-02 12:31:00,
2014-03-02 07:37:00,32.9,-3.6,30.01,NW,315,1.0,5.0,20,0.00,,,0.00,meteohub,2014-03-02 12:37:00,
2014-03-02 07:43:00,32.9,-3.6,30.01,WSW,248,0.0,4.0,20,0.00,,,0.00,meteohub,2014-03-02 12:43:00,
2014-03-02 07:49:00,32.9,-3.6,30.01,West,270,1.0,2.0,20,0.00,,,0.00,meteohub,2014-03-02 12:49:00,
2014-03-02 07:55:00,33.1,-3.5,30.01,NNW,338,1.0,4.0,20,0.00,,,0.00,meteohub,2014-03-02 12:55:00,
2014-03-02 08:00:00,33.1,-3.5,30.01,WNW,292,0.0,4.0,20,0.00,,,0.00,meteohub,2014-03-02 13:00:00,
2014-03-02 08:06:00,33.1,-3.5,30.01,South,180,2.0,4.0,20,0.00,,,0.00,meteohub,2014-03-02 13:06:00,
2014-03-02 08:11:00,33.1,-3.5,30.01,SSW,202,0.0,4.0,20,0.00,,,0.00,meteohub,2014-03-02 13:11:00,
2014-03-02 08:16:00,33.3,-3.3,30.01,SSW,202,0.0,4.0,20,0.00,,,0.00,meteohub,2014-03-02 13:16:00,
2014-03-02 08:22:00,33.3,-3.3,30.01,West,270,0.0,3.0,20,0.00,,,0.00,meteohub,2014-03-02 13:22:00,
2014-03-02 08:31:00,33.4,-3.3,30.01,SSW,202,0.0,4.0,20,0.00,,,0.00,meteohub,2014-03-02 13:31:00,
2014-03-02 08:37:00,33.6,-3.1,30.01,North,-999,-999.0,4.0,20,0.00,,,0.00,meteohub,2014-03-02 13:37:00,
2014-03-02 08:42:00,33.6,-3.1,30.01,WSW,248,0.0,2.0,20,0.00,,,0.00,meteohub,2014-03-02 13:42:00,
2014-03-02 08:47:00,33.8,-2.9,30.01,WSW,248,0.0,6.0,20,0.00,,,0.00,meteohub,2014-03-02 13:47:00,
2014-03-02 08:53:00,33.8,-2.9,30.01,SSW,202,0.0,6.0,20,0.00,,,0.00,meteohub,2014-03-02 13:53:00,
2014-03-02 08:59:00,34.0,-2.7,30.01,SSW,202,2.0,6.0,20,0.00,,,0.00,meteohub,2014-03-02 13:59:00,
2014-03-02 09:05:00,34.0,-2.7,30.01,West,270,0.0,4.0,20,0.00,,,0.00,meteohub,2014-03-02 14:05:00,
2014-03-02 09:11:00,34.0,-2.7,30.01,WSW,248,0.0,4.0,20,0.00,,,0.00,meteohub,2014-03-02 14:11:00,
2014-03-02 09:16:00,34.2,-2.6,30.01,South,180,0.0,4.0,20,0.00,,,0.00,meteohub,2014-03-02 14:16:00,
2014-03-02 09:22:00,34.3,-2.4,30.01,WSW,248,0.0,4.0,20,0.00,,,0.00,meteohub,2014-03-02 14:22:00,
2014-03-02 09:27:00,34.9,-2.0,30.01,SW,225,0.0,4.0,20,0.00,,,0.00,meteohub,2014-03-02 14:27:00,
2014-03-02 09:32:00,35.1,-1.8,30.01,WSW,248,0.0,2.0,20,0.00,,,0.00,meteohub,2014-03-02 14:32:00,
2014-03-02 09:37:00,35.1,-1.8,30.01,SW,225,1.0,0.0,20,0.00,,,0.00,meteohub,2014-03-02 14:37:00,
2014-03-02 09:43:00,35.6,-2.6,30.01,SW,225,0.0,4.0,19,0.00,,,0.00,meteohub,2014-03-02 14:43:00,
2014-03-02 09:48:00,35.6,-2.6,30.01,SW,225,0.0,4.0,19,0.00,,,0.00,meteohub,2014-03-02 14:48:00,
2014-03-02 09:55:00,36.0,-2.2,30.01,West,270,0.0,3.0,19,0.00,,,0.00,meteohub,2014-03-02 14:55:00,
2014-03-02 10:00:00,36.3,-1.8,30.01,North,0,0.0,3.0,19,0.00,,,0.00,meteohub,2014-03-02 15:00:00,
2014-03-02 10:06:00,36.7,-1.7,30.01,WSW,248,0.0,4.0,19,0.00,,,0.00,meteohub,2014-03-02 15:06:00,
2014-03-02 10:11:00,37.2,-1.1,30.01,SE,135,0.0,4.0,19,0.00,,,0.00,meteohub,2014-03-02 15:11:00,
2014-03-02 10:16:00,37.6,-0.8,30.01,WSW,248,0.0,4.0,19,0.00,,,0.00,meteohub,2014-03-02 15:16:00,
2014-03-02 10:22:00,38.3,-0.2,30.01,WNW,292,0.0,3.0,19,0.00,,,0.00,meteohub,2014-03-02 15:22:00,
2014-03-02 10:27:00,38.3,-0.2,30.01,NE,45,0.0,3.0,19,0.00,,,0.00,meteohub,2014-03-02 15:27:00,
2014-03-02 10:32:00,37.8,-4.4,-100.00,North,0,0.0,3.0,16,0.00,,,0.00,meteohub,2014-03-02 15:32:00,
2014-03-02 10:38:00,36.9,-3.8,30.01,West,270,0.0,1.0,17,0.00,,,0.00,meteohub,2014-03-02 15:38:00,
2014-03-02 10:45:00,36.7,-3.8,30.01,North,0,2.0,4.0,17,0.00,,,0.00,meteohub,2014-03-02 15:45:00,
2014-03-02 10:50:00,36.7,-3.8,30.01,NE,45,2.0,6.0,17,0.00,,,0.00,meteohub,2014-03-02 15:50:00,
2014-03-02 10:55:00,36.7,-3.8,30.01,NW,315,2.0,6.0,17,0.00,,,0.00,meteohub,2014-03-02 15:55:00,
2014-03-02 11:01:00,37.0,-3.6,30.01,NNW,338,2.0,5.0,17,0.00,,,0.00,meteohub,2014-03-02 16:01:00,
2014-03-02 11:06:00,37.4,-4.5,30.01,NNE,22,4.0,4.0,16,0.00,,,0.00,meteohub,2014-03-02 16:06:00,
2014-03-02 11:11:00,37.8,-4.4,30.01,WNW,292,2.0,6.0,16,0.00,,,0.00,meteohub,2014-03-02 16:11:00,
2014-03-02 11:16:00,37.8,-4.4,30.01,West,270,4.0,6.0,16,0.00,,,0.00,meteohub,2014-03-02 16:16:00,
2014-03-02 11:22:00,38.3,-3.8,30.01,WSW,248,0.0,6.0,16,0.00,,,0.00,meteohub,2014-03-02 16:22:00,
2014-03-02 11:27:00,38.7,-3.5,30.01,SSW,202,0.0,6.0,16,0.00,,,0.00,meteohub,2014-03-02 16:27:00,
2014-03-02 11:32:00,38.8,-3.5,30.01,West,270,0.0,6.0,16,0.00,,,0.00,meteohub,2014-03-02 16:32:00,
2014-03-02 11:38:00,38.7,-3.5,30.01,WNW,292,0.0,3.0,16,0.00,,,0.00,meteohub,2014-03-02 16:38:00,
2014-03-02 11:43:00,38.5,-3.6,30.01,North,0,3.0,4.0,16,0.00,,,0.00,meteohub,2014-03-02 16:43:00,
2014-03-02 11:49:00,38.7,-3.5,30.01,ENE,68,1.0,4.0,16,0.00,,,0.00,meteohub,2014-03-02 16:49:00,
2014-03-02 11:54:00,38.1,-4.0,30.01,WNW,292,6.0,6.0,16,0.00,,,0.00,meteohub,2014-03-02 16:54:00,
2014-03-02 12:00:00,37.6,-4.4,30.01,NW,315,6.0,8.0,16,0.00,,,0.00,meteohub,2014-03-02 17:00:00,
2014-03-02 12:05:00,37.8,-4.4,29.99,West,270,6.0,10.0,16,0.00,,,0.00,meteohub,2014-03-02 17:05:00,
2014-03-02 12:10:00,37.6,-4.4,29.99,NW,315,3.0,10.0,16,0.00,,,0.00,meteohub,2014-03-02 17:10:00,
2014-03-02 12:16:00,37.6,-4.4,29.99,WNW,292,2.0,6.0,16,0.00,,,0.00,meteohub,2014-03-02 17:16:00,
2014-03-02 12:22:00,37.6,-4.4,-100.00,North,-999,-999.0,6.0,16,0.00,,,0.00,meteohub,2014-03-02 17:22:00,
2014-03-02 12:27:00,37.8,-4.4,30.01,NNE,22,0.0,7.0,16,0.00,,,0.00,meteohub,2014-03-02 17:27:00,
2014-03-02 12:32:00,38.8,-3.5,29.99,WNW,292,0.0,9.0,16,0.00,,,0.00,meteohub,2014-03-02 17:32:00,
2014-03-02 12:38:00,38.7,-3.5,29.99,ENE,68,6.0,9.0,16,0.00,,,0.00,meteohub,2014-03-02 17:38:00,
2014-03-02 12:43:00,38.7,-3.5,29.99,North,0,4.0,6.0,16,0.00,,,0.00,meteohub,2014-03-02 17:43:00,
2014-03-02 12:49:00,38.7,-3.5,29.99,NNW,338,2.0,6.0,16,0.00,,,0.00,meteohub,2014-03-02 17:49:00,
2014-03-02 12:55:00,39.4,-2.9,29.99,North,0,4.0,6.0,16,0.00,,,0.00,meteohub,2014-03-02 17:55:00,
2014-03-02 13:00:00,39.4,-2.9,29.99,NNE,22,5.0,6.0,16,0.00,,,0.00,meteohub,2014-03-02 18:00:00,
2014-03-02 13:05:00,40.1,-2.4,29.99,NE,45,2.0,6.0,16,0.00,,,0.00,meteohub,2014-03-02 18:05:00,
2014-03-02 13:10:00,40.3,-2.2,29.99,ENE,68,2.0,6.0,16,0.00,,,0.00,meteohub,2014-03-02 18:10:00,
2014-03-02 13:18:00,39.6,-2.7,29.99,ENE,68,1.0,6.0,16,0.00,,,0.00,meteohub,2014-03-02 18:18:00,
2014-03-02 13:24:00,40.1,-2.4,29.99,WSW,248,5.0,10.0,16,0.00,,,0.00,meteohub,2014-03-02 18:24:00,
2014-03-02 13:29:00,40.5,-2.0,29.99,WSW,248,3.0,10.0,16,0.00,,,0.00,meteohub,2014-03-02 18:29:00,
2014-03-02 13:36:00,39.0,-3.3,-100.00,West,270,4.0,8.0,16,0.00,,,0.00,meteohub,2014-03-02 18:36:00,
2014-03-02 13:42:00,38.5,-3.6,29.99,NE,45,4.0,6.0,16,0.00,,,0.00,meteohub,2014-03-02 18:42:00,
2014-03-02 13:47:00,39.0,-3.3,29.96,South,180,0.0,8.0,16,0.00,,,0.00,meteohub,2014-03-02 18:47:00,
2014-03-02 13:54:00,38.7,-3.5,29.96,NE,45,5.0,8.0,16,0.00,,,0.00,meteohub,2014-03-02 18:54:00,
2014-03-02 13:59:00,37.4,-4.5,29.96,NNW,338,4.0,8.0,16,0.00,,,0.00,meteohub,2014-03-02 18:59:00,
2014-03-02 14:04:00,36.7,-3.8,29.96,NNW,338,6.0,6.0,17,0.00,,,0.00,meteohub,2014-03-02 19:04:00,
2014-03-02 14:11:00,36.5,-4.0,29.96,NNW,338,5.0,6.0,17,0.00,,,0.00,meteohub,2014-03-02 19:11:00,
2014-03-02 14:17:00,37.0,-3.6,29.96,NW,315,3.0,6.0,17,0.00,,,0.00,meteohub,2014-03-02 19:17:00,
2014-03-02 14:24:00,37.4,-4.5,29.96,North,0,4.0,7.0,16,0.00,,,0.00,meteohub,2014-03-02 19:24:00,
2014-03-02 14:29:00,37.6,-4.4,29.96,ENE,68,4.0,7.0,16,0.00,,,0.00,meteohub,2014-03-02 19:29:00,
2014-03-02 14:34:00,38.1,-4.0,29.99,North,0,3.0,7.0,16,0.00,,,0.00,meteohub,2014-03-02 19:34:00,
2014-03-02 14:40:00,39.4,-2.9,29.99,West,270,2.0,5.0,16,0.00,,,0.00,meteohub,2014-03-02 19:40:00,
2014-03-02 14:45:00,40.5,-2.0,29.99,NNE,22,3.0,4.0,16,0.00,,,0.00,meteohub,2014-03-02 19:45:00,
2014-03-02 14:50:00,40.1,-2.4,29.99,NNE,22,2.0,5.0,16,0.00,,,0.00,meteohub,2014-03-02 19:50:00,
2014-03-02 14:55:00,40.6,-2.0,29.99,West,270,0.0,6.0,16,0.00,,,0.00,meteohub,2014-03-02 19:55:00,
2014-03-02 15:02:00,38.8,-3.5,29.99,ENE,68,3.0,6.0,16,0.00,,,0.00,meteohub,2014-03-02 20:02:00,
2014-03-02 15:07:00,37.9,-4.2,29.99,ENE,68,3.0,6.0,16,0.00,,,0.00,meteohub,2014-03-02 20:07:00,
2014-03-02 15:12:00,36.7,-3.8,29.99,East,90,3.0,6.0,17,0.00,,,0.00,meteohub,2014-03-02 20:12:00,
2014-03-02 15:18:00,36.0,-4.5,29.96,ENE,68,4.0,6.0,17,0.00,,,0.00,meteohub,2014-03-02 20:18:00,
2014-03-02 15:23:00,35.8,-4.7,29.96,WNW,292,2.0,6.0,17,0.00,,,0.00,meteohub,2014-03-02 20:23:00,
2014-03-02 15:28:00,35.2,-5.1,29.96,NNW,338,2.0,6.0,17,0.00,,,0.00,meteohub,2014-03-02 20:28:00,
2014-03-02 15:33:00,35.4,-4.9,29.96,North,0,0.0,6.0,17,0.00,,,0.00,meteohub,2014-03-02 20:33:00,
2014-03-02 15:39:00,35.6,-4.7,29.96,North,0,2.0,6.0,17,0.00,,,0.00,meteohub,2014-03-02 20:39:00,
2014-03-02 15:44:00,35.4,-4.9,29.96,NW,315,3.0,5.0,17,0.00,,,0.00,meteohub,2014-03-02 20:44:00,
2014-03-02 15:49:00,35.6,-4.7,29.99,NNE,22,4.0,4.0,17,0.00,,,0.00,meteohub,2014-03-02 20:49:00,
2014-03-02 15:56:00,35.1,-5.3,29.99,NNE,22,3.0,4.0,17,0.00,,,0.00,meteohub,2014-03-02 20:56:00,
2014-03-02 16:01:00,35.1,-5.3,29.99,NE,45,2.0,4.0,17,0.00,,,0.00,meteohub,2014-03-02 21:01:00,
2014-03-02 16:06:00,35.8,-4.7,29.96,NNE,22,3.0,4.0,17,0.00,,,0.00,meteohub,2014-03-02 21:06:00,
2014-03-02 16:11:00,35.1,-5.3,29.96,WNW,292,0.0,4.0,17,0.00,,,0.00,meteohub,2014-03-02 21:11:00,
2014-03-02 16:17:00,35.1,-5.3,29.99,West,270,3.0,4.0,17,0.00,,,0.00,meteohub,2014-03-02 21:17:00,
2014-03-02 16:24:00,34.5,-5.6,29.99,NNE,22,2.0,4.0,17,0.00,,,0.00,meteohub,2014-03-02 21:24:00,
2014-03-02 16:29:00,34.2,-6.0,29.99,NE,45,3.0,4.0,17,0.00,,,0.00,meteohub,2014-03-02 21:29:00,
2014-03-02 16:34:00,33.8,-6.3,29.99,NE,45,3.0,4.0,17,0.00,,,0.00,meteohub,2014-03-02 21:34:00,
2014-03-02 16:40:00,33.6,-5.3,29.99,NNW,338,1.0,6.0,18,0.00,,,0.00,meteohub,2014-03-02 21:40:00,
2014-03-02 16:45:00,33.3,-5.6,29.99,ENE,68,4.0,6.0,18,0.00,,,0.00,meteohub,2014-03-02 21:45:00,
2014-03-02 16:50:00,33.1,-5.6,29.99,NNE,22,3.0,4.0,18,0.00,,,0.00,meteohub,2014-03-02 21:50:00,
2014-03-02 16:57:00,32.9,-5.8,29.99,ENE,68,2.0,6.0,18,0.00,,,0.00,meteohub,2014-03-02 21:57:00,
2014-03-02 17:04:00,32.5,-6.2,29.99,NE,45,3.0,6.0,18,0.00,,,0.00,meteohub,2014-03-02 22:04:00,
2014-03-02 17:10:00,32.4,-6.3,29.99,NE,45,1.0,6.0,18,0.00,,,0.00,meteohub,2014-03-02 22:10:00,
2014-03-02 17:15:00,32.0,-6.5,29.99,North,0,4.0,6.0,18,0.00,,,0.00,meteohub,2014-03-02 22:15:00,
2014-03-02 17:22:00,31.6,-6.9,29.99,North,0,2.0,6.0,18,0.00,,,0.00,meteohub,2014-03-02 22:22:00,
2014-03-02 17:27:00,31.5,-7.1,29.99,NNW,338,4.0,7.0,18,0.00,,,0.00,meteohub,2014-03-02 22:27:00,
2014-03-02 17:34:00,31.1,-7.4,29.99,NE,45,3.0,7.0,18,0.00,,,0.00,meteohub,2014-03-02 22:34:00,
2014-03-02 17:39:00,31.1,-7.4,29.99,West,270,2.0,6.0,18,0.00,,,0.00,meteohub,2014-03-02 22:39:00,
2014-03-02 17:44:00,30.9,-7.6,29.99,NE,45,0.0,6.0,18,0.00,,,0.00,meteohub,2014-03-02 22:44:00,
2014-03-02 17:51:00,30.7,-7.8,30.01,NNE,22,3.0,6.0,18,0.00,,,0.00,meteohub,2014-03-02 22:51:00,
2014-03-02 17:56:00,30.6,-7.8,30.01,NNE,22,1.0,6.0,18,0.00,,,0.00,meteohub,2014-03-02 22:56:00,
2014-03-02 18:01:00,30.4,-8.0,30.01,North,0,2.0,6.0,18,0.00,,,0.00,meteohub,2014-03-02 23:01:00,
2014-03-02 18:07:00,30.4,-8.0,30.01,NE,45,0.0,6.0,18,0.00,,,0.00,meteohub,2014-03-02 23:07:00,
2014-03-02 18:13:00,30.2,-8.1,30.01,NNE,22,1.0,6.0,18,0.00,,,0.00,meteohub,2014-03-02 23:13:00,
2014-03-02 18:19:00,30.2,-8.1,30.01,NE,45,3.0,4.0,18,0.00,,,0.00,meteohub,2014-03-02 23:19:00,
2014-03-02 18:24:00,30.2,-8.1,30.01,NE,45,4.0,6.0,18,0.00,,,0.00,meteohub,2014-03-02 23:24:00,
2014-03-02 18:29:00,30.0,-8.3,30.01,NNE,22,2.0,6.0,18,0.00,,,0.00,meteohub,2014-03-02 23:29:00,
2014-03-02 18:35:00,29.8,-8.5,30.01,NE,45,3.0,6.0,18,0.00,,,0.00,meteohub,2014-03-02 23:35:00,
2014-03-02 18:41:00,29.7,-8.7,30.01,North,0,0.0,4.0,18,0.00,,,0.00,meteohub,2014-03-02 23:41:00,
2014-03-02 18:48:00,29.7,-8.7,30.01,NNE,22,4.0,4.0,18,0.00,,,0.00,meteohub,2014-03-02 23:48:00,
2014-03-02 18:54:00,29.7,-8.7,30.01,ENE,68,2.0,4.0,18,0.00,,,0.00,meteohub,2014-03-02 23:54:00,
2014-03-02 18:59:00,29.5,-8.7,30.01,North,0,3.0,4.0,18,0.00,,,0.00,meteohub,2014-03-02 23:59:00,
2014-03-02 19:05:00,29.5,-8.7,30.01,NW,315,2.0,6.0,18,0.00,,,0.00,meteohub,2014-03-03 00:05:00,
2014-03-02 19:10:00,29.5,-8.7,30.01,North,0,0.0,6.0,18,0.00,,,0.00,meteohub,2014-03-03 00:10:00,
2014-03-02 19:15:00,29.3,-8.9,30.01,North,0,2.0,4.0,18,0.00,,,0.00,meteohub,2014-03-03 00:15:00,
2014-03-02 19:20:00,29.3,-8.9,30.01,NE,45,0.0,3.0,18,0.00,,,0.00,meteohub,2014-03-03 00:20:00,
2014-03-02 19:27:00,29.3,-8.9,30.01,NNE,22,2.0,3.0,18,0.00,,,0.00,meteohub,2014-03-03 00:27:00,
2014-03-02 19:34:00,29.1,-9.0,30.01,NNW,338,0.0,4.0,18,0.00,,,0.00,meteohub,2014-03-03 00:34:00,
2014-03-02 19:40:00,28.9,-9.2,30.01,NNW,338,1.0,4.0,18,0.00,,,0.00,meteohub,2014-03-03 00:40:00,
2014-03-02 19:45:00,28.9,-9.2,30.01,NNE,22,2.0,5.0,18,0.00,,,0.00,meteohub,2014-03-03 00:45:00,
2014-03-02 19:51:00,28.9,-9.2,30.01,North,-999,-999.0,5.0,18,0.00,,,0.00,meteohub,2014-03-03 00:51:00,
2014-03-02 19:56:00,28.9,-9.2,30.01,North,0,3.0,6.0,18,0.00,,,0.00,meteohub,2014-03-03 00:56:00,
2014-03-02 20:01:00,28.9,-9.2,30.01,NE,45,3.0,6.0,18,0.00,,,0.00,meteohub,2014-03-03 01:01:00,
2014-03-02 20:07:00,28.8,-9.4,30.01,NNE,22,1.0,6.0,18,0.00,,,0.00,meteohub,2014-03-03 01:07:00,
2014-03-02 20:13:00,28.8,-9.4,30.01,NNW,338,3.0,6.0,18,0.00,,,0.00,meteohub,2014-03-03 01:13:00,
2014-03-02 20:18:00,28.6,-9.6,29.99,North,0,2.0,6.0,18,0.00,,,0.00,meteohub,2014-03-03 01:18:00,
2014-03-02 20:25:00,28.6,-9.6,29.99,NW,315,3.0,6.0,18,0.00,,,0.00,meteohub,2014-03-03 01:25:00,
2014-03-02 20:30:00,28.6,-9.6,29.99,NW,315,1.0,6.0,18,0.00,,,0.00,meteohub,2014-03-03 01:30:00,
2014-03-02 20:36:00,28.4,-9.6,30.01,NNW,338,6.0,6.0,18,0.00,,,0.00,meteohub,2014-03-03 01:36:00,
2014-03-02 20:41:00,28.4,-9.6,30.01,North,0,0.0,6.0,18,0.00,,,0.00,meteohub,2014-03-03 01:41:00,
2014-03-02 20:47:00,28.2,-9.8,29.99,NE,45,3.0,6.0,18,0.00,,,0.00,meteohub,2014-03-03 01:47:00,
2014-03-02 20:52:00,28.0,-9.9,29.99,North,0,0.0,6.0,18,0.00,,,0.00,meteohub,2014-03-03 01:52:00,
2014-03-02 20:59:00,27.9,-10.1,29.99,ENE,68,3.0,5.0,18,0.00,,,0.00,meteohub,2014-03-03 01:59:00,
2014-03-02 21:05:00,27.9,-10.1,-100.00,NW,315,3.0,6.0,18,0.00,,,0.00,meteohub,2014-03-03 02:05:00,
2014-03-02 21:10:00,27.7,-10.3,30.01,WSW,248,4.0,6.0,18,0.00,,,0.00,meteohub,2014-03-03 02:10:00,
2014-03-02 21:19:00,27.5,-10.5,30.01,NNE,22,2.0,6.0,18,0.00,,,0.00,meteohub,2014-03-03 02:19:00,
2014-03-02 21:24:00,27.3,-10.5,30.01,NE,45,4.0,6.0,18,0.00,,,0.00,meteohub,2014-03-03 02:24:00,
2014-03-02 21:29:00,27.3,-10.5,30.01,North,0,3.0,6.0,18,0.00,,,0.00,meteohub,2014-03-03 02:29:00,
2014-03-02 21:35:00,27.3,-10.5,29.99,ENE,68,0.0,4.0,18,0.00,,,0.00,meteohub,2014-03-03 02:35:00,
2014-03-02 21:40:00,27.1,-10.7,29.99,North,0,1.0,4.0,18,0.00,,,0.00,meteohub,2014-03-03 02:40:00,
2014-03-02 21:45:00,27.1,-10.7,29.99,NW,315,6.0,6.0,18,0.00,,,0.00,meteohub,2014-03-03 02:45:00,
2014-03-02 21:51:00,27.1,-10.7,30.01,NW,315,3.0,6.0,18,0.00,,,0.00,meteohub,2014-03-03 02:51:00,
2014-03-02 21:57:00,27.0,-10.8,30.01,NNE,22,4.0,6.0,18,0.00,,,0.00,meteohub,2014-03-03 02:57:00,
2014-03-02 22:02:00,27.0,-10.8,30.01,NNE,22,3.0,6.0,18,0.00,,,0.00,meteohub,2014-03-03 03:02:00,
2014-03-02 22:08:00,27.0,-10.8,30.01,North,0,1.0,5.0,18,0.00,,,0.00,meteohub,2014-03-03 03:08:00,
2014-03-02 22:14:00,27.0,-10.8,30.01,NNE,22,4.0,5.0,18,0.00,,,0.00,meteohub,2014-03-03 03:14:00,
2014-03-02 22:19:00,26.8,-11.0,30.01,North,0,2.0,5.0,18,0.00,,,0.00,meteohub,2014-03-03 03:19:00,
2014-03-02 22:24:00,26.8,-11.0,30.01,South,180,1.0,4.0,18,0.00,,,0.00,meteohub,2014-03-03 03:24:00,
2014-03-02 22:30:00,26.8,-11.0,30.01,NW,315,3.0,6.0,18,0.00,,,0.00,meteohub,2014-03-03 03:30:00,
2014-03-02 22:36:00,26.6,-10.1,30.01,NE,45,2.0,6.0,19,0.00,,,0.00,meteohub,2014-03-03 03:36:00,
2014-03-02 22:42:00,26.6,-10.1,30.01,ENE,68,3.0,5.0,19,0.00,,,0.00,meteohub,2014-03-03 03:42:00,
2014-03-02 22:47:00,26.4,-10.3,30.01,NW,315,4.0,7.0,19,0.00,,,0.00,meteohub,2014-03-03 03:47:00,
2014-03-02 22:53:00,26.4,-10.3,30.01,NNE,22,4.0,7.0,19,0.00,,,0.00,meteohub,2014-03-03 03:53:00,
2014-03-02 22:58:00,26.2,-10.3,30.01,NE,45,0.0,6.0,19,0.00,,,0.00,meteohub,2014-03-03 03:58:00,
2014-03-02 23:03:00,26.2,-10.3,30.01,NE,45,5.0,6.0,19,0.00,,,0.00,meteohub,2014-03-03 04:03:00,
2014-03-02 23:09:00,26.1,-10.5,30.01,NW,315,2.0,6.0,19,0.00,,,0.00,meteohub,2014-03-03 04:09:00,
2014-03-02 23:15:00,26.1,-10.5,30.01,NNE,22,2.0,6.0,19,0.00,,,0.00,meteohub,2014-03-03 04:15:00,
2014-03-02 23:21:00,26.1,-10.5,30.01,WNW,292,4.0,6.0,19,0.00,,,0.00,meteohub,2014-03-03 04:21:00,
2014-03-02 23:26:00,25.9,-10.7,30.01,NW,315,3.0,7.0,19,0.00,,,0.00,meteohub,2014-03-03 04:26:00,
2014-03-02 23:31:00,25.7,-10.8,30.01,NNW,338,3.0,7.0,19,0.00,,,0.00,meteohub,2014-03-03 04:31:00,
2014-03-02 23:37:00,25.7,-10.8,30.01,North,0,0.0,7.0,19,0.00,,,0.00,meteohub,2014-03-03 04:37:00,
2014-03-02 23:42:00,25.5,-11.0,30.01,North,0,5.0,5.0,19,0.00,,,0.00,meteohub,2014-03-03 04:42:00,
2014-03-02 23:48:00,25.5,-11.0,30.01,ENE,68,3.0,5.0,19,0.00,,,0.00,meteohub,2014-03-03 04:48:00,
2014-03-02 23:53:00,25.3,-11.2,30.01,NNW,338,0.0,5.0,19,0.00,,,0.00,meteohub,2014-03-03 04:53:00,
2014-03-02 23:59:00,25.2,-11.2,-100.00,North,0,4.0,6.0,19,0.00,,,0.00,meteohub,2014-03-03 04:59:00,